Weather History for Sioux City, IA

Change the Weather History Date:

Saturday, February 1, 2014

  Actual Average Record
Temperature  
Mean Temperature 13 °F 22 °F  
Max Temperature 23 °F 32 °F 58 °F (1987)
Min Temperature 2 °F 11 °F -26 °F (1917)
Degree Days  
Heating Degree Days 52 43  
Month to date heating degree days 52 43  
Since 1 July heating degree days 4367 4219  
Cooling Degree Days 0 0  
Month to date cooling degree days 0 0  
Year to date cooling degree days 0 0  
Moisture  
Dew Point 12 °F    
Average Humidity 69    
Maximum Humidity 92    
Minimum Humidity 45    
Precipitation  
Precipitation 0.03 in 0.02 in 0.41 in (1915)
Month to date precipitation 0.03 0.02  
Year to date precipitation 0.22 0.64  
Snow  
Snow 0.50 in 0.20 in 8.10 in (1915)
Month to date snowfall 0.5 0.2  
Since 1 July snowfall 5.8 20.1  
Snow Depth 1.00 in    
Sea Level Pressure  
Sea Level Pressure 30.08 in    
Wind  
Wind Speed 13 mph (NW)    
Max Wind Speed 26 mph    
Max Gust Speed 32 mph    
Visibility 7 miles    
Events Snow    
T = Trace of Precipitation, MM = Missing Value Source: NWS Daily Summary

Daily Weather History Graph

Daily Weather History Graph

Search for Another Location

Airport:

Trip Planner

Search our weather history database for the weather conditions in past years. The results will help you decide how hot, cold, wet, or windy it might be!

Date:

Astronomy

Feb. 01, 2014 Rise Set
Actual Time 7:39 AM CST 5:39 PM CST
Civil Twilight 7:09 AM CST 6:09 PM CST
Nautical Twilight 6:35 AM CST 6:43 PM CST
Astronomical Twilight 6:02 AM CST 7:16 PM CST
Moon 8:25 AM CST (2/1) 8:20 PM CST (2/1)
Length of Visible Light 11h 00m
Length of Day
10h 00m
Waxing Crescent, 5% of the Moon is Illuminated
Feb 1
Waxing Crescent
Feb 6
First Quarter
Feb 14
Full
Feb 22
Last Quarter
Mar 1
New

Hourly Weather History & Observations

Time (CST) Temp. Windchill Dew Point Humidity Pressure Visibility Wind Dir Wind Speed Gust Speed Precip Events Conditions
12:52 AM 21.0 °F 11.4 °F 15.1 °F 78% 30.01 in 4.0 mi South 8.1 mph - 0.00 in Snow Light Snow
1:00 AM 19.9 °F 11.1 °F 16.0 °F 85% 29.96 in 2.5 mi South 6.9 mph - 0.00 in Snow Light Snow
1:14 AM 19.9 °F 11.1 °F 16.0 °F 85% 29.96 in 4.0 mi South 6.9 mph - 0.00 in Snow Light Snow
1:52 AM 19.9 °F 13.4 °F 17.1 °F 89% 30.01 in 9.0 mi South 4.6 mph - 0.01 in Snow Light Snow
2:52 AM 19.9 °F 14.9 °F 17.1 °F 89% 29.99 in 5.0 mi SSE 3.5 mph - 0.00 in Snow Light Snow
3:24 AM 19.9 °F - 17.1 °F 89% 29.92 in 2.0 mi Calm Calm - 0.00 in Snow Light Snow
3:42 AM 19.9 °F - 17.1 °F 89% 29.92 in 2.5 mi Calm Calm - 0.00 in Snow Light Snow
3:44 AM 19.9 °F - 17.1 °F 89% 29.92 in 3.0 mi Calm Calm - 0.00 in Snow Light Snow
3:52 AM 19.9 °F 14.9 °F 17.1 °F 89% 29.97 in 3.0 mi SE 3.5 mph - 0.00 in Snow Light Snow
4:19 AM 19.9 °F 13.4 °F 17.1 °F 89% 29.92 in 2.5 mi SSE 4.6 mph - 0.01 in Snow Light Snow
4:27 AM 19.9 °F 13.4 °F 17.1 °F 89% 29.92 in 2.5 mi SSE 4.6 mph - 0.01 in Snow Light Snow
4:49 AM 19.4 °F 12.8 °F 17.6 °F 93% 29.92 in 3.0 mi SSE 4.6 mph - 0.02 in Snow Light Snow
4:52 AM 19.0 °F 12.3 °F 17.1 °F 92% 29.97 in 4.0 mi SSE 4.6 mph - 0.02 in Snow Light Snow
5:16 AM 19.9 °F 14.9 °F 17.1 °F 89% 29.92 in 2.5 mi South 3.5 mph - 0.00 in Snow Light Snow
5:21 AM 19.0 °F 13.9 °F 17.1 °F 92% 29.92 in 3.0 mi SSE 3.5 mph - 0.00 in Snow Light Snow
5:29 AM 19.0 °F - 17.1 °F 92% 29.92 in 4.0 mi Calm Calm - 0.00 in Snow Light Snow
5:52 AM 19.0 °F - 17.1 °F 92% 29.98 in 9.0 mi Calm Calm - 0.00 in   Overcast
6:52 AM 19.0 °F - 17.1 °F 92% 29.99 in 10.0 mi Calm Calm - N/A   Overcast
7:37 AM 18.0 °F - 16.0 °F 92% 29.95 in 10.0 mi Calm Calm - N/A   Overcast
7:52 AM 17.1 °F 8.7 °F 16.0 °F 96% 30.01 in 8.0 mi NW 5.8 mph - N/A   Mostly Cloudy
8:35 AM 19.9 °F 3.5 °F 14.0 °F 78% 29.98 in 10.0 mi NNW 21.9 mph - N/A   Overcast
8:52 AM 18.0 °F 0.9 °F 12.0 °F 78% 30.05 in 10.0 mi NNW 21.9 mph - N/A   Mostly Cloudy
9:52 AM 18.0 °F 1.3 °F 10.0 °F 71% 30.09 in 10.0 mi NNW 20.7 mph 29.9 mph N/A   Clear
10:52 AM 19.0 °F 2.0 °F 9.0 °F 65% 30.11 in 10.0 mi NW 23.0 mph 28.8 mph N/A   Clear
11:52 AM 19.0 °F 2.4 °F 9.0 °F 65% 30.13 in 10.0 mi NNW 21.9 mph - N/A   Clear
12:52 PM 19.9 °F 2.2 °F 9.0 °F 62% 30.13 in 10.0 mi NW 26.5 mph 32.2 mph N/A   Clear
1:52 PM 19.9 °F 3.5 °F 9.0 °F 62% 30.13 in 10.0 mi NNW 21.9 mph 29.9 mph N/A   Clear
2:52 PM 19.9 °F 3.9 °F 8.1 °F 60% 30.16 in 10.0 mi NNW 20.7 mph - N/A   Clear
3:52 PM 19.0 °F 2.4 °F 7.0 °F 59% 30.18 in 10.0 mi NNW 21.9 mph - N/A   Clear
4:52 PM 18.0 °F 3.6 °F 6.1 °F 60% 30.22 in 10.0 mi NNW 15.0 mph 24.2 mph N/A   Clear
5:52 PM 15.1 °F 0.5 °F 5.0 °F 64% 30.25 in 10.0 mi NNW 13.8 mph - N/A   Clear
6:52 PM 14.0 °F -0.8 °F 3.9 °F 64% 30.27 in 10.0 mi North 13.8 mph - N/A   Mostly Cloudy
7:52 PM 12.9 °F -3.4 °F 3.9 °F 67% 30.30 in 10.0 mi NNW 16.1 mph - N/A   Partly Cloudy
8:52 PM 10.9 °F -3.4 °F 1.9 °F 67% 30.33 in 10.0 mi NNW 11.5 mph - N/A   Clear
9:52 PM 8.1 °F -3.2 °F 1.0 °F 73% 30.36 in 10.0 mi NNW 6.9 mph - N/A   Clear
10:52 PM 5.0 °F -8.1 °F -0.0 °F 80% 30.37 in 10.0 mi NNW 8.1 mph - N/A   Clear
11:52 PM 3.9 °F -6.9 °F -0.9 °F 80% 30.38 in 10.0 mi NW 5.8 mph - N/A   Clear